template, University of Cincinnati

Public SafetyPublic SafetyUniversity of Cincinnati

Public Safety

Incident Reports

Search

Enter Dates Below to search the log.

Start:(MM/DD/YYYY) //
End: (MM/DD/YYYY) //

Results For:

10/11/2017 to 10/18/2017

CampusDateNumberTypeCrimeLocationArrest
WEST CAMPUS10/17/2017 8:18:00 PM201701989Offense ReportSTOP SIGN VIOLATION CORRY BLVD.No
WEST CAMPUS10/17/2017 5:52:00 PM201701998Offense ReportSTOP SIGN VIOLATION194 No
WEST CAMPUS10/17/2017 4:17:00 AM201701992Offense ReportTRESPASSING2610 MCMICKEN CIRCLENo
WEST CAMPUS10/17/2017 12:50:00 AM201701990Offense ReportUNDER AGE DRINKING 18-2145 WEST DANIELS ST.No
WEST CAMPUS10/16/2017 9:21:00 PM201701987Offense ReportRECEIVE STOLEN PROPERTY290 CCM Blvd.Yes
WEST CAMPUS10/16/2017 9:15:00 PM201701985Offense ReportDRUG ABUSE OF MARIJUANA230 Calhoun St.No
WEST CAMPUS10/16/2017 9:05:00 PM201701984Offense ReportSTOP SIGN VIOLATION206 No
WEST CAMPUS10/16/2017 8:18:00 PM201701988Offense ReportSTOP SIGN VIOLATION No
BLUE ASH CAMPUS (OLD RAYMOND WALTERS)10/16/2017 2:00:00 PM201701994Offense ReportTHEFT All Other9555 PLAINFIELD RD.No
WEST CAMPUS10/16/2017 12:30:00 PM201701983Offense ReportTHEFT Bicycles2540 CLIFTON AVE.No
WEST CAMPUS10/15/2017 10:00:00 PM201701978Offense ReportTHEFT From Buildings348 Clifton CtNo
WEST CAMPUS10/15/2017 9:21:00 PM201701972Offense ReportDriving on sidewalk2750 CAMPUS WAYNo
WEST CAMPUS10/15/2017 8:37:00 PM201701971Offense ReportSTOP SIGN VIOLATION57 WEST CORRY BLV.No
WEST CAMPUS10/15/2017 4:45:00 AM201701964Offense ReportTHEFT All Other2700 BEARCAT WAYNo
WEST CAMPUS10/15/2017 1:53:00 AM201701961Offense ReportTHEFT All Other2700 Bearcat WayNo
WEST CAMPUS10/14/2017 6:30:00 PM201701957Offense ReportTHEFT Bicycles290 CCM Blvd.No
WEST CAMPUS10/14/2017 12:30:00 PM201701997Offense ReportBURGLARY FORCEABLE ENTRY220 CALHOUN ST.No
WEST CAMPUS10/14/2017 4:00:00 AM201701954Offense ReportUNDER AGE DRINKING 18-212820 BEARCAT WAYNo
WEST CAMPUS10/13/2017 3:00:00 PM201701970Offense ReportTHEFT Bicycles2931 SCIOTO LN.No
VICTORY PARKWAY CAMPUS (OLD CAS)10/13/2017 11:45:00 AM201701947Offense ReportTHEFT From Buildings2220 VICTORY PKY.No
WEST CAMPUS10/13/2017 8:30:00 AM201701956Offense ReportTHEFT Bicycles342 Clifton CtNo
WEST CAMPUS10/12/2017 7:00:00 PM201701945Offense ReportTHEFT Bicycles101 WEST DANIELS ST.No
WEST CAMPUS10/12/2017 1:35:00 PM201701937Offense ReportTHEFT All Other No
WEST CAMPUS10/12/2017 9:00:00 AM201701938Offense ReportTHEFT Bicycles318 COLLEGE DR.No
WEST CAMPUS10/11/2017 10:19:00 PM201701931Offense ReportPOSS OF DRUGS40 West University Ave.No
WEST CAMPUS10/11/2017 10:10:00 PM201701929Offense ReportDRUG ABUSE OF MARIJUANA220 CALHOUN ST.No
WEST CAMPUS10/11/2017 10:05:00 PM201701930Offense ReportTHEFT All Other45 WEST DANIELS ST.No
WEST CAMPUS10/11/2017 7:00:00 PM201701928Offense ReportTHEFT All Other2601 O VARSITY WAYNo
WEST CAMPUS10/11/2017 6:55:00 PM201701915Offense ReportSTOP SIGN VIOLATION WEST UNIVERSITY AVE.No